Time,TemperatureF,DewpointF,PressureIn,WindDirection,WindDirectionDegrees,WindSpeedMPH,WindSpeedGustMPH,Humidity,HourlyPrecipIn,Conditions,Clouds,dailyrainin,SoftwareType,DateUTC
2013-10-14 00:00:00,46.7,39.6,30.25,ENE,68,0.0,0.0,76,0.00,,,0.00,WUHU216HW,2013-10-14 05:00:00,
2013-10-14 00:05:00,46.7,39.6,30.25,ENE,68,0.0,0.0,76,0.00,,,0.00,WUHU216HW,2013-10-14 05:05:00,
2013-10-14 00:30:00,46.2,39.1,30.25,ENE,68,0.0,0.0,76,0.00,,,0.00,WUHU216HW,2013-10-14 05:30:00,
2013-10-14 00:35:00,46.2,39.1,30.25,ENE,68,0.0,0.0,76,0.00,,,0.00,WUHU216HW,2013-10-14 05:35:00,
2013-10-14 01:00:00,45.8,39.0,30.25,NE,45,0.0,0.0,77,0.00,,,0.00,WUHU216HW,2013-10-14 06:00:00,
2013-10-14 01:05:00,45.8,39.0,30.25,NE,45,0.0,0.0,77,0.00,,,0.00,WUHU216HW,2013-10-14 06:05:00,
2013-10-14 01:30:00,45.4,38.7,30.26,NNE,23,0.0,0.0,77,0.00,,,0.00,WUHU216HW,2013-10-14 06:30:00,
2013-10-14 01:35:00,45.4,38.7,30.26,NNE,23,0.0,0.0,77,0.00,,,0.00,WUHU216HW,2013-10-14 06:35:00,
2013-10-14 02:00:00,45.8,39.4,30.26,NNE,23,0.0,0.0,78,0.00,,,0.00,WUHU216HW,2013-10-14 07:00:00,
2013-10-14 02:05:00,45.8,39.4,30.26,NNE,23,0.0,0.0,78,0.00,,,0.00,WUHU216HW,2013-10-14 07:05:00,
2013-10-14 02:30:00,45.1,38.4,30.25,ENE,68,0.0,0.0,77,0.00,,,0.00,WUHU216HW,2013-10-14 07:30:00,
2013-10-14 02:35:00,45.1,38.4,30.25,ENE,68,0.0,0.0,77,0.00,,,0.00,WUHU216HW,2013-10-14 07:35:00,
2013-10-14 03:00:00,45.1,38.4,30.25,NE,45,0.0,0.0,77,0.00,,,0.00,WUHU216HW,2013-10-14 08:00:00,
2013-10-14 03:05:00,45.1,38.4,30.25,NE,45,0.0,0.0,77,0.00,,,0.00,WUHU216HW,2013-10-14 08:05:00,
2013-10-14 03:30:00,44.5,37.8,30.25,ENE,68,0.0,0.0,77,0.00,,,0.00,WUHU216HW,2013-10-14 08:30:00,
2013-10-14 03:35:00,44.5,37.8,30.25,ENE,68,0.0,0.0,77,0.00,,,0.00,WUHU216HW,2013-10-14 08:35:00,
2013-10-14 04:00:00,44.7,38.3,30.26,NNE,23,0.0,0.0,78,0.00,,,0.00,WUHU216HW,2013-10-14 09:00:00,
2013-10-14 04:05:00,44.7,38.0,30.26,NNE,23,0.0,0.0,77,0.00,,,0.00,WUHU216HW,2013-10-14 09:05:00,
2013-10-14 04:30:00,45.1,38.7,30.26,NNE,23,0.0,0.0,78,0.00,,,0.00,WUHU216HW,2013-10-14 09:30:00,
2013-10-14 04:35:00,45.1,38.7,30.26,NNE,23,0.0,0.0,78,0.00,,,0.00,WUHU216HW,2013-10-14 09:35:00,
2013-10-14 05:00:00,46.2,40.1,30.26,NE,45,0.0,0.0,79,0.00,,,0.00,WUHU216HW,2013-10-14 10:00:00,
2013-10-14 05:05:00,46.2,40.1,30.26,NE,45,0.0,0.0,79,0.00,,,0.00,WUHU216HW,2013-10-14 10:05:00,
2013-10-14 05:30:00,46.9,41.1,30.26,ENE,68,0.0,0.0,80,0.00,,,0.00,WUHU216HW,2013-10-14 10:30:00,
2013-10-14 05:35:00,46.9,41.1,30.26,NNE,23,0.0,0.0,80,0.00,,,0.00,WUHU216HW,2013-10-14 10:35:00,
2013-10-14 06:00:00,47.4,41.6,30.26,North,0,0.0,0.0,80,0.00,,,0.00,WUHU216HW,2013-10-14 11:00:00,
2013-10-14 06:05:00,47.4,41.6,30.26,North,0,0.0,0.0,80,0.00,,,0.00,WUHU216HW,2013-10-14 11:05:00,
2013-10-14 06:30:00,48.3,42.4,30.26,SE,135,0.0,0.0,80,0.00,,,0.00,WUHU216HW,2013-10-14 11:30:00,
2013-10-14 06:35:00,48.3,42.4,30.26,SE,135,0.0,0.0,80,0.00,,,0.00,WUHU216HW,2013-10-14 11:35:00,
2013-10-14 07:00:00,48.7,42.8,30.26,ENE,68,0.0,0.0,80,0.00,,,0.00,WUHU216HW,2013-10-14 12:00:00,
2013-10-14 07:05:00,48.7,42.8,30.26,ENE,68,0.0,0.0,80,0.00,,,0.00,WUHU216HW,2013-10-14 12:05:00,
2013-10-14 07:30:00,49.8,43.6,30.25,SE,135,0.0,0.0,79,0.00,,,0.00,WUHU216HW,2013-10-14 12:30:00,
2013-10-14 07:35:00,49.8,43.6,30.25,SE,135,0.0,0.0,79,0.00,,,0.00,WUHU216HW,2013-10-14 12:35:00,
2013-10-14 08:00:00,51.2,44.3,30.25,NNW,338,1.1,1.1,77,0.00,,,0.00,WUHU216HW,2013-10-14 13:00:00,
2013-10-14 08:05:00,51.2,44.3,30.25,NNW,338,1.1,1.1,77,0.00,,,0.00,WUHU216HW,2013-10-14 13:05:00,
2013-10-14 08:30:00,52.6,45.0,30.25,SSW,203,0.7,0.7,75,0.00,,,0.00,WUHU216HW,2013-10-14 13:30:00,
2013-10-14 08:35:00,52.6,45.0,30.25,SSW,203,0.7,0.7,75,0.00,,,0.00,WUHU216HW,2013-10-14 13:35:00,
2013-10-14 09:00:00,54.1,45.4,30.25,SSW,203,1.3,1.3,72,0.00,,,0.00,WUHU216HW,2013-10-14 14:00:00,
2013-10-14 09:05:00,54.1,45.4,30.25,SSW,203,1.3,1.3,72,0.00,,,0.00,WUHU216HW,2013-10-14 14:05:00,
2013-10-14 09:30:00,55.0,45.5,30.24,NW,315,1.3,1.3,70,0.00,,,0.00,WUHU216HW,2013-10-14 14:30:00,
2013-10-14 09:35:00,55.0,45.5,30.24,WSW,248,1.1,1.3,70,0.00,,,0.00,WUHU216HW,2013-10-14 14:35:00,
2013-10-14 10:00:00,56.1,46.2,30.24,WSW,248,2.5,2.5,69,0.00,,,0.00,WUHU216HW,2013-10-14 15:00:00,
2013-10-14 10:05:00,56.1,46.2,30.24,WSW,248,2.5,2.5,69,0.00,,,0.00,WUHU216HW,2013-10-14 15:05:00,
2013-10-14 10:30:00,57.0,45.9,30.24,WSW,248,0.9,0.9,66,0.00,,,0.00,WUHU216HW,2013-10-14 15:30:00,
2013-10-14 10:35:00,57.0,45.9,30.24,WSW,248,0.9,0.9,66,0.00,,,0.00,WUHU216HW,2013-10-14 15:35:00,
2013-10-14 11:00:00,57.9,45.5,30.24,South,180,0.9,0.9,63,0.00,,,0.00,WUHU216HW,2013-10-14 16:00:00,
2013-10-14 11:05:00,57.9,45.5,30.24,South,180,0.9,0.9,63,0.00,,,0.00,WUHU216HW,2013-10-14 16:05:00,
2013-10-14 11:30:00,58.9,46.0,30.24,WNW,293,1.8,1.8,62,0.00,,,0.00,WUHU216HW,2013-10-14 16:30:00,
2013-10-14 11:35:00,58.9,46.0,30.24,WSW,248,3.4,4.0,62,0.00,,,0.00,WUHU216HW,2013-10-14 16:35:00,
2013-10-14 12:00:00,59.3,46.0,30.24,WNW,293,1.1,1.1,61,0.00,,,0.00,WUHU216HW,2013-10-14 17:00:00,
2013-10-14 12:05:00,59.3,46.0,30.24,South,180,0.7,1.1,61,0.00,,,0.00,WUHU216HW,2013-10-14 17:05:00,
2013-10-14 12:30:00,60.4,47.0,30.22,SW,225,1.8,1.8,61,0.00,,,0.00,WUHU216HW,2013-10-14 17:30:00,
2013-10-14 12:35:00,60.4,47.0,30.22,SW,225,0.9,1.8,61,0.00,,,0.00,WUHU216HW,2013-10-14 17:35:00,
2013-10-14 13:00:00,60.7,46.4,30.20,WNW,293,1.1,1.1,59,0.00,,,0.00,WUHU216HW,2013-10-14 18:00:00,
2013-10-14 13:05:00,60.7,46.4,30.20,WNW,293,1.1,1.1,59,0.00,,,0.00,WUHU216HW,2013-10-14 18:05:00,
2013-10-14 13:30:00,61.3,45.6,30.19,SW,225,0.4,0.4,56,0.00,,,0.00,WUHU216HW,2013-10-14 18:30:00,
2013-10-14 13:35:00,61.3,45.6,30.19,SW,225,0.4,0.4,56,0.00,,,0.00,WUHU216HW,2013-10-14 18:35:00,
2013-10-14 14:00:00,62.4,46.6,30.17,South,180,1.1,1.1,56,0.00,,,0.00,WUHU216HW,2013-10-14 19:00:00,
2013-10-14 14:05:00,62.4,46.6,30.17,SSW,203,1.8,1.8,56,0.00,,,0.00,WUHU216HW,2013-10-14 19:05:00,
2013-10-14 14:30:00,62.7,46.4,30.15,North,0,1.3,1.3,55,0.00,,,0.00,WUHU216HW,2013-10-14 19:30:00,
2013-10-14 14:35:00,62.7,46.4,30.15,NW,315,2.2,2.2,55,0.00,,,0.00,WUHU216HW,2013-10-14 19:35:00,
2013-10-14 15:00:00,62.9,46.1,30.15,West,270,1.1,1.1,54,0.00,,,0.00,WUHU216HW,2013-10-14 20:00:00,
2013-10-14 15:05:00,62.9,46.1,30.15,SW,225,0.9,1.1,54,0.00,,,0.00,WUHU216HW,2013-10-14 20:05:00,
2013-10-14 15:30:00,62.2,45.4,30.13,NNW,338,1.6,1.6,54,0.00,,,0.00,WUHU216HW,2013-10-14 20:30:00,
2013-10-14 15:35:00,62.2,45.4,30.13,NNW,338,1.6,1.6,54,0.00,,,0.00,WUHU216HW,2013-10-14 20:35:00,
2013-10-14 16:00:00,62.5,46.2,30.12,WSW,248,0.7,0.7,55,0.00,,,0.00,WUHU216HW,2013-10-14 21:00:00,
2013-10-14 16:02:00,62.5,46.2,30.12,WSW,248,0.7,0.7,55,0.00,,,0.00,WUHU216HW,2013-10-14 21:02:00,
2013-10-14 16:07:00,62.5,46.2,30.12,WSW,248,0.7,0.7,55,0.00,,,0.00,WUHU216HW,2013-10-14 21:07:00,
2013-10-14 16:30:00,62.4,46.1,30.11,NNW,338,1.1,1.1,55,0.00,,,0.00,WUHU216HW,2013-10-14 21:30:00,
2013-10-14 16:35:00,62.4,46.1,30.11,WSW,248,0.4,1.1,55,0.00,,,0.00,WUHU216HW,2013-10-14 21:35:00,
2013-10-14 17:00:00,61.8,46.5,30.10,WNW,293,0.9,0.9,57,0.00,,,0.00,WUHU216HW,2013-10-14 22:00:00,
2013-10-14 17:05:00,61.8,46.5,30.10,WSW,248,1.6,1.6,57,0.00,,,0.00,WUHU216HW,2013-10-14 22:05:00,
2013-10-14 17:30:00,61.1,46.8,30.10,WNW,293,1.6,1.6,59,0.00,,,0.00,WUHU216HW,2013-10-14 22:30:00,
2013-10-14 17:35:00,61.1,46.8,30.10,WNW,293,1.6,1.6,59,0.00,,,0.00,WUHU216HW,2013-10-14 22:35:00,
2013-10-14 18:00:00,59.5,46.6,30.09,NW,315,0.0,0.0,62,0.00,,,0.00,WUHU216HW,2013-10-14 23:00:00,
2013-10-14 18:05:00,59.5,46.6,30.09,NNW,338,1.1,1.1,62,0.00,,,0.00,WUHU216HW,2013-10-14 23:05:00,
2013-10-14 18:30:00,57.9,45.9,30.09,NNW,338,0.0,0.0,64,0.00,,,0.00,WUHU216HW,2013-10-14 23:30:00,
2013-10-14 18:35:00,57.9,45.9,30.09,NNW,338,0.0,0.0,64,0.00,,,0.00,WUHU216HW,2013-10-14 23:35:00,
2013-10-14 19:00:00,56.6,45.9,30.09,NW,315,0.0,0.0,67,0.00,,,0.00,WUHU216HW,2013-10-15 00:00:00,
2013-10-14 19:05:00,56.6,45.9,30.09,NW,315,0.0,0.0,67,0.00,,,0.00,WUHU216HW,2013-10-15 00:05:00,
2013-10-14 19:10:00,56.6,45.9,30.09,NW,315,0.0,0.0,67,0.00,,,0.00,WUHU216HW,2013-10-15 00:10:00,
2013-10-14 19:30:00,55.2,46.1,30.09,NW,315,0.0,0.0,71,0.00,,,0.00,WUHU216HW,2013-10-15 00:30:00,
2013-10-14 19:35:00,55.2,46.1,30.09,NW,315,0.0,0.0,71,0.00,,,0.00,WUHU216HW,2013-10-15 00:35:00,
2013-10-14 19:40:00,55.2,46.1,30.09,NW,315,0.0,0.0,71,0.00,,,0.00,WUHU216HW,2013-10-15 00:40:00,
2013-10-14 20:00:00,55.0,46.2,30.08,SE,135,0.0,0.0,72,0.00,,,0.00,WUHU216HW,2013-10-15 01:00:00,
2013-10-14 20:05:00,54.8,46.1,30.08,SE,135,0.0,0.0,72,0.00,,,0.00,WUHU216HW,2013-10-15 01:05:00,
2013-10-14 20:10:00,54.8,46.1,30.08,SE,135,0.0,0.0,72,0.00,,,0.00,WUHU216HW,2013-10-15 01:10:00,
2013-10-14 20:30:00,54.8,46.4,30.07,SSW,203,0.2,0.2,73,0.00,,,0.00,WUHU216HW,2013-10-15 01:30:00,
2013-10-14 20:35:00,54.8,46.4,30.07,SSW,203,0.2,0.2,73,0.00,,,0.00,WUHU216HW,2013-10-15 01:35:00,
2013-10-14 20:40:00,54.8,46.4,30.07,SSW,203,0.2,0.2,73,0.00,,,0.00,WUHU216HW,2013-10-15 01:40:00,
2013-10-14 21:00:00,55.3,46.9,30.06,South,180,0.0,0.0,73,0.00,,,0.00,WUHU216HW,2013-10-15 02:00:00,
2013-10-14 21:05:00,55.3,46.9,30.06,South,180,0.0,0.0,73,0.00,,,0.00,WUHU216HW,2013-10-15 02:05:00,
2013-10-14 21:10:00,55.3,46.9,30.06,South,180,0.0,0.0,73,0.00,,,0.00,WUHU216HW,2013-10-15 02:10:00,
2013-10-14 21:30:00,55.9,47.5,30.05,SSW,203,0.2,0.2,73,0.00,,,0.00,WUHU216HW,2013-10-15 02:30:00,
2013-10-14 21:35:00,55.9,47.5,30.05,SSW,203,0.2,0.2,73,0.00,,,0.00,WUHU216HW,2013-10-15 02:35:00,
2013-10-14 21:40:00,55.9,47.5,30.05,SSW,203,0.2,0.2,73,0.00,,,0.00,WUHU216HW,2013-10-15 02:40:00,
2013-10-14 22:00:00,56.2,47.8,30.05,NE,45,1.1,1.1,73,0.00,,,0.00,WUHU216HW,2013-10-15 03:00:00,
2013-10-14 22:05:00,56.1,47.7,30.04,South,180,0.2,1.1,73,0.00,,,0.00,WUHU216HW,2013-10-15 03:05:00,
2013-10-14 22:10:00,56.1,47.7,30.04,South,180,0.2,0.2,73,0.00,,,0.00,WUHU216HW,2013-10-15 03:10:00,
2013-10-14 22:30:00,56.6,48.2,30.04,SW,225,2.0,2.0,73,0.00,,,0.00,WUHU216HW,2013-10-15 03:30:00,
2013-10-14 22:35:00,56.6,48.2,30.04,SW,225,2.0,2.0,73,0.00,,,0.00,WUHU216HW,2013-10-15 03:35:00,
2013-10-14 22:40:00,56.6,48.2,30.04,SW,225,2.0,2.0,73,0.00,,,0.00,WUHU216HW,2013-10-15 03:40:00,
2013-10-14 23:00:00,57.0,48.5,30.03,SSW,203,0.0,0.0,73,0.00,,,0.00,WUHU216HW,2013-10-15 04:00:00,
2013-10-14 23:01:00,57.0,48.5,30.03,SSW,203,0.0,0.0,73,0.00,,,0.00,WUHU216HW,2013-10-15 04:01:00,
2013-10-14 23:02:00,57.0,48.5,30.03,SSW,203,0.0,0.0,73,0.00,,,0.00,WUHU216HW,2013-10-15 04:02:00,
2013-10-14 23:07:00,57.0,48.5,30.03,SSW,203,0.0,0.0,73,0.00,,,0.00,WUHU216HW,2013-10-15 04:07:00,
2013-10-14 23:30:00,56.8,48.7,30.02,ESE,113,0.7,0.7,74,0.00,,,0.00,WUHU216HW,2013-10-15 04:30:00,
2013-10-14 23:35:00,56.8,48.7,30.02,ESE,113,0.7,0.7,74,0.00,,,0.00,WUHU216HW,2013-10-15 04:35:00,
2013-10-14 23:40:00,56.8,48.7,30.02,ESE,113,0.7,0.7,74,0.00,,,0.00,WUHU216HW,2013-10-15 04:40:00,